| time (UTC) | temp C | wind direction | speed KPH | gust KPH | rain 1hr cm | rain 24hr cm | rain mn cm | humidity % | barometer mb |
| 20260504234014 | 12 | 255 | 25.7 | 38.6 | 0.00 | 0.00 | 0.00 | 78 | 1012.9 |
| 20260504233514 | 12 | 254 | 24.1 | 40.2 | 0.00 | 0.00 | 0.00 | 77 | 1012.9 |
| 20260504233014 | 12 | 252 | 30.6 | 43.5 | 0.00 | 0.00 | 0.00 | 76 | 1012.8 |
| 20260504232513 | 13 | 250 | 30.6 | 43.5 | 0.00 | 0.00 | 0.00 | 76 | 1012.8 |
| 20260504232013 | 13 | 243 | 29.0 | 43.5 | 0.00 | 0.00 | 0.00 | 75 | 1012.8 |
| 20260504231513 | 13 | 244 | 33.8 | 41.8 | 0.00 | 0.00 | 0.00 | 74 | 1012.7 |
| 20260504231014 | 13 | 251 | 27.4 | 40.2 | 0.00 | 0.00 | 0.00 | 75 | 1012.7 |
| 20260504230512 | 13 | 253 | 25.7 | 45.1 | 0.00 | 0.00 | 0.00 | 75 | 1012.6 |
| 20260504230012 | 13 | 246 | 27.4 | 45.1 | 0.00 | 0.00 | 0.00 | 74 | 1012.7 |
| 20260504225512 | 13 | 255 | 27.4 | 41.8 | 0.00 | 0.00 | 0.00 | 73 | 1012.5 |
| 20260504225011 | 13 | 256 | 29.0 | 41.8 | 0.00 | 0.00 | 0.00 | 73 | 1012.7 |
| 20260504224517 | 13 | 243 | 29.0 | 48.3 | 0.00 | 0.00 | 0.00 | 72 | 1012.9 |
| 20260504224010 | 13 | 260 | 29.0 | 46.7 | 0.00 | 0.00 | 0.00 | 72 | 1012.7 |
| 20260504223511 | 13 | 271 | 35.4 | 45.1 | 0.00 | 0.00 | 0.00 | 71 | 1012.7 |
| 20260504223010 | 13 | 257 | 33.8 | 46.7 | 0.00 | 0.00 | 0.00 | 71 | 1012.7 |
| 20260504222510 | 13 | 273 | 33.8 | 46.7 | 0.00 | 0.00 | 0.00 | 71 | 1012.8 |
| 20260504222009 | 13 | 252 | 29.0 | 46.7 | 0.00 | 0.00 | 0.00 | 71 | 1012.7 |
| 20260504221509 | 13 | 256 | 33.8 | 51.5 | 0.00 | 0.00 | 0.00 | 70 | 1012.8 |
| 20260504221009 | 13 | 277 | 33.8 | 53.1 | 0.00 | 0.00 | 0.00 | 69 | 1012.8 |
| 20260504220509 | 14 | 230 | 35.4 | 53.1 | 0.00 | 0.00 | 0.00 | 69 | 1012.8 |
| 20260504220010 | 14 | 282 | 32.2 | 46.7 | 0.00 | 0.00 | 0.00 | 69 | 1012.8 |
| 20260504215512 | 14 | 255 | 32.2 | 43.5 | 0.00 | 0.00 | 0.00 | 68 | 1012.9 |
| 20260504215008 | 14 | 255 | 30.6 | 45.1 | 0.00 | 0.00 | 0.00 | 68 | 1012.8 |
| 20260504214509 | 14 | 259 | 33.8 | 45.1 | 0.00 | 0.00 | 0.00 | 68 | 1012.9 |
| 20260504214012 | 14 | 279 | 30.6 | 45.1 | 0.00 | 0.00 | 0.00 | 68 | 1012.8 |
| 20260504213508 | 14 | 248 | 33.8 | 46.7 | 0.00 | 0.00 | 0.00 | 68 | 1012.9 |
| 20260504213008 | 14 | 269 | 33.8 | 54.7 | 0.00 | 0.00 | 0.00 | 67 | 1012.8 |
| 20260504212507 | 14 | 249 | 40.2 | 54.7 | 0.00 | 0.00 | 0.00 | 67 | 1012.7 |
| 20260504212006 | 13 | 250 | 37.0 | 53.1 | 0.00 | 0.00 | 0.00 | 67 | 1012.8 |
| 20260504211506 | 14 | 255 | 37.0 | 53.1 | 0.00 | 0.00 | 0.00 | 66 | 1012.8 |
| 20260504211006 | 14 | 259 | 37.0 | 49.9 | 0.00 | 0.00 | 0.00 | 65 | 1012.9 |
| 20260504210508 | 14 | 260 | 37.0 | 48.3 | 0.00 | 0.00 | 0.00 | 64 | 1013.0 |
| 20260504210010 | 14 | 239 | 35.4 | 54.7 | 0.00 | 0.00 | 0.00 | 65 | 1012.8 |
| 20260504205505 | 14 | 259 | 33.8 | 54.7 | 0.00 | 0.00 | 0.00 | 65 | 1012.9 |
| 20260504205007 | 14 | 251 | 38.6 | 53.1 | 0.00 | 0.00 | 0.00 | 65 | 1012.8 |
| 20260504204509 | 14 | 248 | 33.8 | 49.9 | 0.00 | 0.00 | 0.00 | 67 | 1012.9 |
| 20260504204004 | 14 | 266 | 37.0 | 51.5 | 0.00 | 0.00 | 0.00 | 66 | 1012.8 |
| 20260504203504 | 15 | 240 | 41.8 | 51.5 | 0.00 | 0.00 | 0.00 | 62 | 1012.7 |
| 20260504203004 | 15 | 255 | 37.0 | 49.9 | 0.00 | 0.00 | 0.00 | 61 | 1012.7 |
| 20260504202506 | 15 | 253 | 37.0 | 48.3 | 0.00 | 0.00 | 0.00 | 60 | 1012.7 |
| 20260504202004 | 15 | 256 | 30.6 | 49.9 | 0.00 | 0.00 | 0.00 | 60 | 1012.7 |
| 20260504201502 | 15 | 259 | 32.2 | 49.9 | 0.00 | 0.00 | 0.00 | 60 | 1012.8 |
| 20260504201003 | 15 | 269 | 32.2 | 45.1 | 0.00 | 0.00 | 0.00 | 60 | 1012.8 |
| 20260504200502 | 15 | 250 | 30.6 | 41.8 | 0.00 | 0.00 | 0.00 | 59 | 1012.9 |
| 20260504200001 | 15 | 274 | 29.0 | 46.7 | 0.00 | 0.00 | 0.00 | 59 | 1013.0 |
| 20260504195601 | 15 | 244 | 29.0 | 46.7 | 0.00 | 0.00 | 0.00 | 59 | 1013.1 |
| 20260504195101 | 15 | 257 | 30.6 | 43.5 | 0.00 | 0.00 | 0.00 | 59 | 1013.0 |
| 20260504194601 | 15 | 256 | 30.6 | 43.5 | 0.00 | 0.00 | 0.00 | 60 | 1013.0 |
| 20260504194100 | 15 | 266 | 32.2 | 43.5 | 0.00 | 0.00 | 0.00 | 60 | 1013.0 |
| 20260504193600 | 15 | 259 | 32.2 | 45.1 | 0.00 | 0.00 | 0.00 | 61 | 1013.0 |
| 20260504193059 | 15 | 247 | 32.2 | 45.1 | 0.00 | 0.00 | 0.00 | 61 | 1013.1 |
| 20260504192559 | 15 | 264 | 30.6 | 41.8 | 0.00 | 0.00 | 0.00 | 62 | 1013.0 |
| 20260504192103 | 15 | 257 | 33.8 | 41.8 | 0.00 | 0.00 | 0.00 | 60 | 1013.0 |
| 20260504191617 | 15 | 250 | 25.7 | 40.2 | 0.00 | 0.00 | 0.00 | 61 | 1013.0 |
| 20260504191059 | 16 | 248 | 29.0 | 40.2 | 0.00 | 0.00 | 0.00 | 61 | 1013.1 |
| 20260504190601 | 15 | 260 | 32.2 | 43.5 | 0.00 | 0.00 | 0.00 | 61 | 1013.1 |
| 20260504190057 | 15 | 249 | 33.8 | 43.5 | 0.00 | 0.00 | 0.00 | 60 | 1013.1 |
| 20260504185557 | 15 | 262 | 32.2 | 43.5 | 0.00 | 0.00 | 0.00 | 61 | 1013.2 |
| 20260504185056 | 15 | 255 | 29.0 | 45.1 | 0.00 | 0.00 | 0.00 | 60 | 1013.3 |
| 20260504184556 | 15 | 259 | 32.2 | 45.1 | 0.00 | 0.00 | 0.00 | 60 | 1013.2 |
| 20260504184056 | 15 | 253 | 30.6 | 43.5 | 0.00 | 0.00 | 0.00 | 61 | 1013.3 |
| 20260504183555 | 15 | 240 | 32.2 | 43.5 | 0.00 | 0.00 | 0.00 | 61 | 1013.5 |
| 20260504183055 | 15 | 245 | 29.0 | 43.5 | 0.00 | 0.00 | 0.00 | 59 | 1013.4 |
| 20260504182553 | 15 | 248 | 32.2 | 41.8 | 0.00 | 0.00 | 0.00 | 58 | 1013.6 |
| 20260504182053 | 16 | 266 | 30.6 | 45.1 | 0.00 | 0.00 | 0.00 | 57 | 1013.6 |
| 20260504181553 | 16 | 261 | 32.2 | 45.1 | 0.00 | 0.00 | 0.00 | 57 | 1013.6 |
| 20260504181053 | 15 | 268 | 30.6 | 46.7 | 0.00 | 0.00 | 0.00 | 57 | 1013.6 |
| 20260504180553 | 16 | 242 | 29.0 | 46.7 | 0.00 | 0.00 | 0.00 | 56 | 1013.7 |
| 20260504180051 | 16 | 256 | 33.8 | 43.5 | 0.00 | 0.00 | 0.00 | 55 | 1013.7 |
| 20260504175551 | 16 | 256 | 33.8 | 48.3 | 0.00 | 0.00 | 0.00 | 55 | 1013.8 |
| 20260504175051 | 15 | 243 | 37.0 | 48.3 | 0.00 | 0.00 | 0.00 | 56 | 1013.8 |
| 20260504174555 | 16 | 246 | 33.8 | 46.7 | 0.00 | 0.00 | 0.00 | 54 | 1013.8 |
| 20260504174051 | 16 | 267 | 30.6 | 46.7 | 0.00 | 0.00 | 0.00 | 54 | 1013.8 |
| 20260504173550 | 16 | 255 | 32.2 | 48.3 | 0.00 | 0.00 | 0.00 | 54 | 1013.9 |
| 20260504173051 | 16 | 257 | 30.6 | 48.3 | 0.00 | 0.00 | 0.00 | 54 | 1013.9 |
| 20260504172549 | 16 | 250 | 30.6 | 46.7 | 0.00 | 0.00 | 0.00 | 53 | 1013.9 |
| 20260504172049 | 16 | 274 | 32.2 | 41.8 | 0.00 | 0.00 | 0.00 | 53 | 1014.0 |
| 20260504171549 | 16 | 265 | 29.0 | 41.8 | 0.00 | 0.00 | 0.00 | 53 | 1014.0 |
| 20260504171048 | 16 | 257 | 24.1 | 40.2 | 0.00 | 0.00 | 0.00 | 55 | 1014.1 |
| 20260504170548 | 16 | 283 | 30.6 | 40.2 | 0.00 | 0.00 | 0.00 | 52 | 1014.1 |
| 20260504151036 | 16 | 328 | 16.1 | 32.2 | 0.00 | 0.00 | 0.00 | 53 | 1015.1 |
| 20260504150536 | 16 | 240 | 24.1 | 35.4 | 0.00 | 0.00 | 0.00 | 52 | 1015.0 |
| 20260504141034 | 15 | 254 | 20.9 | 32.2 | 0.00 | 0.00 | 0.00 | 54 | 1015.2 |
| 20260504140532 | 15 | 262 | 22.5 | 32.2 | 0.00 | 0.00 | 0.00 | 54 | 1015.2 |
| 20260504130526 | 13 | 298 | 9.7 | 30.6 | 0.00 | 0.00 | 0.00 | 59 | 1015.6 |
| 20260504110503 | 11 | 267 | 12.9 | 20.9 | 0.00 | 0.00 | 0.00 | 59 | 1015.5 |
| 20260504100557 | 10 | 278 | 16.1 | 24.1 | 0.00 | 0.00 | 0.00 | 62 | 1015.2 |
| 20260504081547 | 10 | 288 | 17.7 | 27.4 | 0.00 | 0.00 | 0.00 | 58 | 1014.8 |
| 20260504081044 | 10 | 283 | 12.9 | 29.0 | 0.00 | 0.00 | 0.00 | 58 | 1014.8 |
| 20260504080545 | 10 | 279 | 17.7 | 29.0 | 0.00 | 0.00 | 0.00 | 58 | 1014.7 |
| 20260504050527 | 9 | 259 | 4.8 | 8.0 | 0.00 | 0.00 | 0.00 | 72 | 1014.3 |
| 20260504045524 | 10 | 243 | 8.0 | 11.3 | 0.00 | 0.00 | 0.00 | 73 | 1014.3 |
| 20260504045030 | 10 | 252 | 8.0 | 11.3 | 0.00 | 0.00 | 0.00 | 68 | 1014.3 |
| 20260504044523 | 10 | 267 | 6.4 | 11.3 | 0.00 | 0.00 | 0.00 | 55 | 1014.4 |
| 20260504044025 | 10 | 275 | 8.0 | 9.7 | 0.00 | 0.00 | 0.00 | 55 | 1014.4 |
| 20260504043521 | 10 | 279 | 6.4 | 8.0 | 0.00 | 0.00 | 0.00 | 55 | 1014.3 |
| 20260504043021 | 10 | 266 | 4.8 | 8.0 | 0.00 | 0.00 | 0.00 | 54 | 1014.3 |
| 20260504042521 | 10 | 267 | 4.8 | 8.0 | 0.00 | 0.00 | 0.00 | 53 | 1014.3 |
| 20260504042019 | 10 | 280 | 4.8 | 8.0 | 0.00 | 0.00 | 0.00 | 52 | 1014.2 |
| 20260504041519 | 10 | 274 | 4.8 | 8.0 | 0.00 | 0.00 | 0.00 | 53 | 1014.3 |
| 20260504041017 | 10 | 283 | 4.8 | 9.7 | 0.00 | 0.00 | 0.00 | 54 | 1014.2 |
| 20260504040517 | 10 | 271 | 6.4 | 9.7 | 0.00 | 0.00 | 0.00 | 55 | 1014.2 |
| 20260504040015 | 10 | 276 | 6.4 | 9.7 | 0.00 | 0.00 | 0.00 | 57 | 1014.2 |
| 20260504035515 | 9 | 270 | 6.4 | 9.7 | 0.00 | 0.00 | 0.00 | 63 | 1014.2 |
| 20260504035014 | 9 | 280 | 6.4 | 9.7 | 0.00 | 0.00 | 0.00 | 71 | 1014.2 |
| 20260504034514 | 9 | 273 | 4.8 | 8.0 | 0.00 | 0.00 | 0.00 | 74 | 1014.1 |
| 20260504034014 | 9 | 266 | 6.4 | 8.0 | 0.00 | 0.00 | 0.00 | 77 | 1014.1 |
| 20260504033514 | 9 | 264 | 6.4 | 8.0 | 0.00 | 0.00 | 0.00 | 78 | 1014.0 |
| 20260504033014 | 9 | 269 | 4.8 | 8.0 | 0.00 | 0.00 | 0.00 | 80 | 1014.1 |
| 20260504032515 | 9 | 253 | 4.8 | 8.0 | 0.00 | 0.00 | 0.00 | 79 | 1014.1 |
| 20260504032014 | 9 | 248 | 6.4 | 11.3 | 0.00 | 0.00 | 0.00 | 78 | 1014.1 |
| 20260504031514 | 10 | 243 | 6.4 | 11.3 | 0.00 | 0.00 | 0.00 | 77 | 1014.1 |
| 20260504031013 | 10 | 247 | 8.0 | 11.3 | 0.00 | 0.00 | 0.00 | 76 | 1014.1 |
| 20260504030513 | 10 | 245 | 8.0 | 11.3 | 0.00 | 0.00 | 0.00 | 76 | 1014.1 |
| 20260504030015 | 10 | 248 | 8.0 | 11.3 | 0.00 | 0.00 | 0.00 | 75 | 1014.0 |
| 20260504025512 | 9 | 255 | 8.0 | 9.7 | 0.00 | 0.00 | 0.00 | 75 | 1014.1 |
| 20260504025014 | 9 | 260 | 8.0 | 9.7 | 0.00 | 0.00 | 0.00 | 74 | 1014.0 |
| 20260504024512 | 9 | 257 | 8.0 | 9.7 | 0.00 | 0.00 | 0.00 | 73 | 1014.0 |
| 20260504024011 | 9 | 262 | 8.0 | 11.3 | 0.00 | 0.00 | 0.00 | 72 | 1014.0 |
| 20260504023512 | 10 | 257 | 8.0 | 11.3 | 0.00 | 0.00 | 0.00 | 71 | 1014.0 |
| 20260504023011 | 10 | 255 | 6.4 | 17.7 | 0.00 | 0.00 | 0.00 | 69 | 1014.1 |
| 20260504022510 | 10 | 271 | 8.0 | 17.7 | 0.00 | 0.00 | 0.00 | 65 | 1014.1 |
| 20260504022011 | 10 | 257 | 11.3 | 14.5 | 0.00 | 0.00 | 0.00 | 67 | 1014.0 |
| 20260504021511 | 10 | 252 | 11.3 | 12.9 | 0.00 | 0.00 | 0.00 | 67 | 1014.0 |
| 20260504021009 | 10 | 249 | 8.0 | 11.3 | 0.00 | 0.00 | 0.00 | 69 | 1014.0 |
| 20260504020514 | 10 | 260 | 8.0 | 9.7 | 0.00 | 0.00 | 0.00 | 69 | 1014.0 |
| 20260504020011 | 10 | 263 | 8.0 | 11.3 | 0.00 | 0.00 | 0.00 | 68 | 1014.0 |
| 20260504015509 | 10 | 273 | 8.0 | 11.3 | 0.00 | 0.00 | 0.00 | 68 | 1014.1 |
| 20260504015009 | 10 | 259 | 8.0 | 11.3 | 0.00 | 0.00 | 0.00 | 69 | 1014.0 |
| 20260504014508 | 9 | 268 | 8.0 | 11.3 | 0.00 | 0.00 | 0.00 | 68 | 1014.0 |
| 20260504014006 | 10 | 264 | 6.4 | 9.7 | 0.00 | 0.00 | 0.00 | 68 | 1013.9 |
| 20260504013511 | 10 | 264 | 8.0 | 11.3 | 0.00 | 0.00 | 0.00 | 67 | 1013.8 |
| 20260504013007 | 10 | 266 | 8.0 | 11.3 | 0.00 | 0.00 | 0.00 | 65 | 1013.8 |
| 20260504012506 | 10 | 263 | 8.0 | 11.3 | 0.00 | 0.00 | 0.00 | 65 | 1013.7 |
| 20260504012006 | 10 | 276 | 6.4 | 9.7 | 0.00 | 0.00 | 0.00 | 65 | 1013.7 |
| 20260504011505 | 10 | 265 | 6.4 | 9.7 | 0.00 | 0.00 | 0.00 | 64 | 1013.7 |
| 20260504011007 | 10 | 269 | 4.8 | 11.3 | 0.00 | 0.00 | 0.00 | 65 | 1013.4 |
| 20260504010503 | 10 | 277 | 8.0 | 11.3 | 0.00 | 0.00 | 0.00 | 65 | 1013.5 |
| 20260504010003 | 10 | 266 | 8.0 | 9.7 | 0.00 | 0.00 | 0.00 | 60 | 1013.2 |
| 20260504005503 | 10 | 271 | 4.8 | 8.0 | 0.00 | 0.00 | 0.00 | 55 | 1013.2 |
| 20260504005002 | 10 | 278 | 4.8 | 8.0 | 0.00 | 0.00 | 0.00 | 49 | 1013.3 |
| 20260504004505 | 10 | 280 | 4.8 | 6.4 | 0.00 | 0.00 | 0.00 | 45 | 1013.2 |
| 20260504004001 | 10 | 285 | 4.8 | 6.4 | 0.00 | 0.00 | 0.00 | 44 | 1013.2 |
| 20260504003500 | 10 | 290 | 4.8 | 8.0 | 0.00 | 0.00 | 0.00 | 44 | 1013.0 |
| 20260504003109 | 10 | 295 | 4.8 | 8.0 | 0.00 | 0.00 | 0.00 | 44 | 1012.9 |
| 20260504002559 | 10 | 294 | 4.8 | 8.0 | 0.00 | 0.00 | 0.00 | 47 | 1012.8 |
| 20260504002059 | 10 | 298 | 4.8 | 8.0 | 0.00 | 0.00 | 0.00 | 51 | 1012.8 |
| 20260504001602 | 10 | 304 | 4.8 | 9.7 | 0.00 | 0.00 | 0.00 | 54 | 1012.7 |
| 20260504001058 | 10 | 309 | 4.8 | 9.7 | 0.00 | 0.00 | 0.00 | 55 | 1012.7 |
| 20260504000558 | 10 | 319 | 4.8 | 8.0 | 0.00 | 0.00 | 0.00 | 54 | 1012.6 |
| 20260504000104 | 10 | 313 | 4.8 | 8.0 | 0.00 | 0.00 | 0.00 | 54 | 1012.5 |
| 20260503235557 | 10 | 307 | 4.8 | 9.7 | 0.00 | 0.00 | 0.00 | 55 | 1012.6 |
| 20260503235057 | 10 | 302 | 4.8 | 9.7 | 0.00 | 0.00 | 0.00 | 54 | 1012.5 |
| 20260503234557 | 10 | 314 | 6.4 | 9.7 | 0.00 | 0.00 | 0.00 | 54 | 1012.5 |